Wetbulb
54.47 54.32 54.29 54.48 54.44 54.72 55.19 55.32 55.19 55.34 55.35 55.16 54.85 54.71 54.59 54.64 54.30 51.07 43.44 49.56 50.82 54.51 53.34 45.95 44.24 42.62 42.14 38.05 38.06 36.95 25.78 21.74 25.51 27.46 30.51 34.66 32.95 36.15 37.34 36.63 37.40 39.28 37.28 40.35 43.10
54.18 53.98 54.00 54.25 54.33 54.50 54.77 54.99 55.10 55.05 54.68 54.38 54.14 54.51 53.96 53.84 49.50 44.79 51.36 53.06 53.38 53.68 47.08 42.32 39.69 41.04 36.12 36.28 35.90 32.16 24.20 26.81 31.88 29.87 30.45 33.33 32.55 32.88 33.43 33.34 33.41 35.01 39.50 41.19 41.25
53.95 53.69 53.84 53.97 54.25 54.34 54.59 54.70 54.37 54.10 53.96 53.74 54.34 53.50 53.37 51.61 44.10 43.70 52.34 52.07 52.22 51.32 47.76 45.49 42.95 40.27 34.57 35.63 34.16 32.33 27.49 33.01 34.59 34.90 34.91 33.63 32.74 34.14 31.78 29.73 32.55 33.39 35.66 38.47 38.58
53.95 53.59 53.61 53.69 54.07 54.21 54.26 54.19 53.57 53.41 53.52 54.06 53.26 52.89 52.36 48.33 31.14 46.21 52.88 51.11 51.73 48.33 45.83 42.49 39.52 34.33 32.25 30.91 35.69 29.13 33.46 33.91 35.25 36.19 34.54 31.99 33.60 31.84 32.49 32.38 36.27 36.52 36.99 37.72 37.85
53.78 53.39 53.25 53.42 53.78 53.92 53.95 53.46 52.96 52.78 53.42 52.66 52.49 52.60 47.71 38.95 39.18 49.51 52.24 48.99 46.21 44.41 40.86 38.61 35.24 34.41 30.08 32.29 33.07 30.16 31.88 35.13 35.68 35.50 34.45 35.75 32.63 31.64 32.45 35.07 36.90 37.44 38.67 37.75 37.97
53.72 53.31 53.03 53.20 53.61 53.67 53.54 52.68 52.48 52.89 52.39 52.73 52.83 52.43 44.20 33.68 46.63 46.21 45.10 44.96 44.56 42.03 39.74 38.62 36.63 37.35 33.12 32.63 30.72 33.52 33.61 33.18 34.69 34.30 34.79 32.92 32.82 31.92 33.77 36.24 35.84 37.73 37.73 38.25 38.42
53.68 53.23 52.89 53.13 53.38 53.23 53.17 52.04 51.41 52.20 51.84 52.76 52.86 49.67 39.33 36.31 43.60 44.56 44.20 42.33 43.37 41.85 37.92 40.07 40.00 36.08 35.05 31.13 35.70 34.29 28.95 31.51 32.44 33.44 32.43 34.99 29.08 29.71 34.60 36.17 35.07 34.76 35.23 36.78 38.63
53.61 53.07 52.79 52.94 53.10 52.87 52.66 51.63 50.64 51.57 51.42 52.48 52.80 45.80 34.53 45.04 42.00 43.68 43.86 41.81 43.20 43.86 42.12 42.21 41.88 37.80 34.54 35.50 33.44 29.60 28.40 24.03 31.86 32.94 34.25 34.21 24.02 32.24 36.12 35.52 33.79 33.16 33.31 35.42 36.73
54.02 53.38 52.66 52.82 53.15 52.67 51.95 51.66 50.47 51.06 50.61 52.14 45.74 40.69 32.97 47.51 40.08 42.65 42.15 39.39 40.90 42.23 42.40 43.72 40.40 34.94 34.61 28.60 24.03 25.72 19.64 21.53 24.49 31.95 31.30 29.51 25.60 32.47 36.52 36.42 31.43 29.90 30.09 31.22 32.63
53.94 53.23 52.67 52.62 53.02 52.36 52.13 52.04 49.32 47.71 49.58 46.50 44.00 34.62 37.93 36.40 39.76 41.74 42.80 41.83 38.91 38.27 38.59 36.68 33.84 27.90 26.71 23.17 13.30 20.48 21.48 23.29 23.24 27.37 28.20 26.42 26.14 29.90 30.41 29.62 27.33 25.71 26.02 27.32 28.89
53.60 52.51 52.37 52.28 51.96 51.27 48.49 43.58 38.77 39.77 38.44 33.77 34.83 35.60 37.41 40.26 42.22 39.88 41.39 39.39 39.03 34.73 26.48 31.32 25.74 21.90 24.16 26.56 27.49 27.00 24.04 20.89 23.49 28.31 25.11 24.25 25.22 27.19 27.97 26.48 23.85 23.79 23.79 24.59 26.16
52.79 52.33 52.19 52.02 51.59 50.82 44.50 39.44 38.98 38.68 32.60 38.62 38.48 38.26 39.79 39.06 34.44 37.63 41.04 33.32 32.44 26.34 28.95 26.66 21.92 28.33 30.69 29.60 26.39 24.89 21.28 19.77 24.13 26.93 24.92 22.86 22.55 25.34 25.55 23.88 24.15 23.22 22.37 23.43 24.82
52.43 52.19 51.93 51.78 50.75 44.46 39.59 39.32 44.05 42.77 33.01 34.83 36.92 36.57 36.32 37.54 33.63 34.39 37.43 33.95 29.79 26.65 25.78 22.69 27.01 31.76 28.70 25.66 23.46 22.63 20.45 19.23 18.76 23.28 25.45 22.08 19.60 19.87 24.23 24.92 23.44 23.82 24.02 24.02 24.42
52.15 52.09 51.59 51.81 45.13 41.02 37.53 42.56 44.37 42.80 27.54 30.29 32.62 35.48 37.83 37.29 31.70 38.98 38.90 33.95 30.71 25.94 26.06 26.04 30.82 28.63 25.76 23.83 24.11 15.91 23.94 21.98 21.23 18.77 12.16 23.09 8.01 16.15 19.77 19.80 19.56 20.23 21.43 22.04 24.24
52.21 51.90 51.25 50.19 41.13 38.37 40.18 43.48 43.35 39.83 14.57 31.26 32.40 39.31 37.79 32.77 32.95 34.08 38.55 34.40 26.63 26.73 24.18 24.38 26.11 25.00 17.64 23.76 25.18 16.36 23.19 22.14 22.51 18.88 19.38 20.83 12.94 13.10 17.43 14.32 15.23 17.91 20.00 21.63 24.09
52.54 51.34 49.46 45.75 43.22 41.06 43.03 42.49 40.68 25.39 15.25 26.47 32.31 30.37 29.67 31.89 32.43 34.56 33.34 34.82 33.71 28.11 28.65 26.32 31.95 27.73 25.94 27.73 25.90 24.56 19.56 24.55 26.08 18.06 8.42 17.42 15.22 10.07 11.03 12.81 13.91 16.67 18.58 20.42 23.46
52.34 50.59 46.62 45.32 40.60 42.32 42.40 38.71 25.50 18.62 28.19 22.41 24.01 28.56 26.89 26.27 28.60 29.73 27.33 24.42 22.05 13.23 16.41 23.38 25.62 28.38 29.07 21.07 24.19 20.21 10.20 -1.24 3.73 5.31 11.66 19.92 12.05 10.04 15.33 15.32 15.18 14.46 17.20 19.99 23.49
51.47 49.23 46.77 43.78 42.59 42.31 39.16 31.29 19.44 19.41 18.07 28.01 27.53 26.99 23.39 25.78 25.78 27.04 24.11 21.13 25.12 22.38 14.59 9.26 11.46 22.69 26.33 17.51 11.47 17.44 7.34 -3.88 -6.47 2.34 8.29 19.38 9.29 11.71 17.67 17.70 16.75 16.46 18.81 20.44 21.33
49.46 43.56 42.72 43.21 43.03 41.36 34.99 21.82 21.61 23.83 26.67 24.13 26.61 20.70 19.67 25.57 24.49 24.66 22.62 21.23 23.88 22.90 9.70 9.23 10.96 26.36 25.44 24.51 20.21 14.64 10.21 18.77 3.58 8.66 7.43 14.09 16.75 18.95 19.40 13.76 13.21 12.52 16.11 16.52 19.63
42.35 41.17 42.30 42.14 41.66 37.39 29.85 25.24 20.61 27.31 27.77 26.81 19.62 20.22 12.82 17.35 19.42 21.38 21.81 25.24 24.59 27.69 25.13 17.15 11.22 24.27 26.87 23.27 23.41 19.42 20.53 8.85 10.90 -5.80 -6.16 6.35 6.41 3.63 7.41 7.01 8.91 9.14 12.71 14.76 18.16
40.97 33.86 40.52 41.47 39.48 34.58 24.13 21.30 24.39 29.62 29.83 24.69 18.80 19.89 20.38 17.40 20.98 19.17 22.71 25.88 26.62 26.20 26.93 23.44 14.28 18.08 21.40 8.87 6.02 14.62 10.61 14.25 15.61 11.65 -0.69 -2.41 -2.60 8.73 6.77 8.24 6.26 9.09 13.43 14.93 17.14
39.96 30.63 39.98 39.28 32.48 30.45 20.56 21.09 30.90 26.35 29.37 28.32 26.74 24.34 17.25 17.80 17.26 22.19 22.52 25.58 28.76 27.60 20.78 24.86 14.94 9.02 12.12 15.41 20.43 19.24 6.95 11.59 7.23 8.66 13.04 10.04 8.24 14.78 11.45 10.26 9.90 10.98 14.02 15.95 18.17
35.05 36.21 40.33 39.88 27.93 24.95 23.00 25.64 27.26 26.49 26.54 27.12 25.85 25.83 20.33 15.60 13.81 20.12 23.48 28.20 29.54 26.22 20.12 21.33 18.60 7.30 13.11 18.63 22.17 12.44 17.42 16.19 15.13 14.63 10.43 7.82 7.39 15.90 12.65 9.37 10.62 10.28 13.01 14.64 16.95
36.83 30.12 33.33 35.62 34.30 27.83 23.93 22.82 21.92 27.81 27.38 28.63 27.31 26.83 17.62 12.40 20.85 13.83 23.15 28.06 29.07 28.15 31.04 27.29 17.70 9.34 8.57 12.87 7.87 9.89 14.40 15.55 13.59 5.88 3.22 6.41 4.89 7.68 8.33 7.01 8.42 10.11 12.40 13.71 15.14
36.75 30.22 31.33 28.09 29.10 28.54 27.89 25.91 23.22 20.98 26.40 27.87 24.87 21.56 18.78 11.78 10.89 11.76 22.15 25.42 28.15 30.63 26.58 22.56 16.62 8.78 8.04 9.07 9.23 7.24 10.24 10.91 4.52 6.73 4.58 8.99 5.29 5.50 7.03 7.58 8.44 10.41 11.56 12.20 13.21
32.26 30.18 30.71 29.62 29.14 28.07 29.42 25.24 25.37 25.63 25.32 23.57 18.25 21.52 19.82 15.36 19.37 16.09 22.55 24.08 23.50 25.37 24.58 23.48 12.18 14.22 10.41 7.85 6.65 8.72 14.41 10.54 10.68 4.77 6.38 7.72 4.69 10.26 10.38 10.39 8.82 9.36 10.34 10.34 11.72
35.91 34.83 36.32 30.54 28.96 27.55 27.11 27.59 27.07 26.78 26.99 27.61 25.36 22.52 19.07 21.98 24.90 25.46 26.79 26.42 24.60 18.05 20.71 17.59 12.46 7.85 5.20 11.12 14.36 11.44 9.38 3.47 2.17 4.56 7.76 3.06 9.26 11.02 8.29 7.30 7.29 8.54 9.94 9.96 11.34
MSLP
1021.40 1020.81 1020.39 1020.26 1019.96 1019.48 1019.23 1019.19 1018.57 1018.44 1018.01 1017.85 1017.39 1017.13 1016.96 1016.68 1016.40 1016.34 1016.87 1017.34 1016.94 1016.40 1016.08 1015.63 1015.23 1015.08 1014.79 1014.83 1014.66 1014.76 1015.66 1015.16 1014.33 1013.75 1012.60 1011.99 1011.78 1010.67 1010.28 1010.14 1009.77 1009.48 1009.60 1009.52 1008.99
1021.33 1021.07 1020.51 1020.15 1019.91 1019.65 1019.04 1018.93 1018.39 1018.27 1017.96 1017.69 1017.31 1017.12 1016.93 1016.74 1016.79 1016.88 1017.38 1017.07 1016.72 1016.34 1016.11 1015.88 1015.66 1015.45 1015.36 1014.98 1014.51 1014.87 1015.36 1014.48 1013.72 1013.74 1013.42 1012.91 1012.59 1012.20 1011.48 1011.23 1010.88 1010.59 1010.13 1009.57 1009.05
1021.46 1021.07 1020.94 1020.05 1019.81 1019.55 1018.96 1018.70 1018.30 1018.08 1017.81 1017.51 1017.24 1017.12 1016.98 1016.82 1016.89 1017.56 1017.25 1016.91 1016.45 1016.37 1016.36 1016.27 1015.95 1015.98 1015.73 1015.24 1014.79 1014.69 1014.68 1014.47 1013.79 1013.40 1013.36 1013.20 1012.86 1012.56 1012.34 1011.67 1011.59 1011.30 1011.08 1010.71 1010.15
1021.80 1021.04 1020.97 1020.17 1019.84 1019.44 1018.95 1018.49 1018.13 1017.97 1017.72 1017.46 1017.32 1017.15 1016.89 1016.96 1017.63 1017.47 1017.03 1016.71 1016.41 1016.34 1016.40 1016.26 1016.12 1016.40 1016.37 1015.98 1015.32 1015.32 1014.58 1014.48 1013.92 1013.63 1013.49 1013.52 1013.40 1013.06 1012.71 1012.13 1011.84 1011.64 1011.32 1010.92 1010.63
1021.50 1021.17 1020.83 1020.28 1019.86 1019.42 1018.87 1018.37 1018.03 1017.91 1017.71 1017.56 1017.32 1017.11 1017.01 1017.15 1017.62 1017.07 1016.77 1016.63 1016.53 1016.36 1016.56 1016.52 1016.56 1016.41 1016.63 1016.58 1016.07 1015.36 1014.92 1014.63 1014.13 1013.86 1013.73 1013.56 1013.51 1013.46 1012.89 1012.47 1011.91 1011.58 1011.26 1011.07 1010.85
1021.47 1021.29 1020.70 1020.20 1019.87 1019.35 1018.75 1018.40 1018.03 1017.89 1017.74 1017.52 1017.35 1017.18 1017.14 1017.54 1017.27 1016.95 1016.80 1016.71 1016.52 1016.35 1016.44 1016.61 1016.52 1016.49 1016.55 1016.68 1016.61 1015.67 1015.28 1014.86 1014.35 1013.94 1013.57 1013.56 1013.25 1013.35 1012.78 1012.10 1012.12 1011.72 1011.26 1010.96 1010.76
1021.51 1021.24 1020.75 1020.23 1019.74 1019.21 1018.72 1018.37 1018.06 1018.00 1017.77 1017.58 1017.45 1017.36 1017.42 1017.67 1017.34 1016.97 1016.94 1016.76 1016.39 1016.29 1016.27 1016.15 1016.20 1016.39 1016.73 1016.85 1016.40 1015.99 1015.68 1015.09 1014.23 1013.89 1013.51 1013.08 1013.07 1013.08 1012.30 1012.18 1012.10 1011.75 1011.37 1011.11 1010.68
1021.58 1021.28 1020.87 1020.28 1019.61 1019.08 1018.62 1018.28 1018.09 1017.97 1017.69 1017.60 1017.47 1017.39 1017.49 1017.08 1017.11 1016.99 1016.94 1016.27 1015.96 1015.86 1015.94 1015.90 1016.17 1016.38 1016.85 1016.80 1016.64 1016.29 1016.03 1015.81 1014.69 1014.23 1013.71 1013.71 1013.44 1013.15 1012.49 1012.45 1012.59 1012.89 1012.63 1012.08 1011.67
1021.64 1021.36 1020.86 1020.20 1019.50 1018.93 1018.51 1018.19 1018.05 1017.81 1017.63 1017.54 1017.62 1017.57 1017.47 1017.10 1017.22 1017.27 1017.02 1016.72 1016.09 1015.92 1015.89 1015.82 1016.17 1016.56 1016.90 1017.46 1017.46 1016.93 1016.84 1016.35 1015.37 1014.80 1014.53 1014.73 1014.37 1014.07 1013.15 1013.16 1013.67 1014.22 1014.07 1013.70 1013.01
1021.58 1021.38 1020.81 1020.20 1019.57 1018.80 1018.28 1017.75 1017.78 1017.66 1017.46 1017.49 1017.57 1018.07 1017.74 1017.98 1017.86 1017.52 1016.54 1016.46 1016.28 1016.12 1016.17 1016.33 1016.80 1017.25 1017.83 1018.25 1018.33 1017.65 1017.26 1016.66 1016.00 1015.59 1015.29 1015.22 1015.38 1015.51 1015.67 1015.63 1015.68 1015.89 1015.57 1015.14 1014.67
1021.44 1021.32 1020.80 1020.25 1019.68 1018.91 1018.27 1017.95 1018.44 1018.51 1018.31 1018.85 1018.77 1018.51 1018.60 1018.33 1017.96 1017.78 1016.90 1016.60 1016.43 1016.62 1017.09 1016.81 1017.50 1018.19 1018.20 1018.23 1018.10 1017.75 1017.65 1017.07 1016.31 1015.95 1016.29 1016.25 1016.25 1016.73 1017.09 1016.85 1016.89 1017.08 1016.94 1016.33 1015.62
1021.28 1021.19 1020.71 1020.28 1019.84 1019.22 1018.67 1019.47 1020.16 1020.37 1019.81 1019.24 1018.94 1018.73 1018.59 1018.69 1018.73 1017.88 1017.28 1017.60 1017.87 1018.12 1017.91 1017.93 1018.14 1018.28 1018.32 1018.21 1018.16 1018.10 1017.85 1017.15 1016.44 1016.32 1016.30 1016.35 1017.41 1017.93 1017.94 1018.44 1018.57 1018.70 1018.48 1017.76 1016.32
1021.11 1021.07 1020.67 1020.12 1019.76 1019.81 1020.01 1020.66 1020.47 1020.30 1020.07 1019.61 1019.19 1018.86 1018.79 1019.18 1018.97 1018.34 1018.06 1018.47 1018.69 1018.96 1019.12 1019.27 1018.56 1018.18 1018.14 1017.94 1017.86 1018.21 1017.89 1017.63 1017.35 1016.62 1016.10 1016.33 1018.08 1018.38 1018.63 1019.06 1019.60 1019.45 1019.59 1018.82 1017.95
1020.97 1021.01 1020.57 1020.10 1020.18 1020.10 1020.45 1020.66 1020.48 1020.35 1020.34 1020.08 1019.34 1019.17 1018.99 1018.98 1018.87 1018.33 1018.19 1018.87 1019.34 1019.58 1019.43 1019.36 1018.79 1018.40 1018.28 1018.74 1018.68 1017.97 1018.13 1017.90 1017.19 1017.34 1017.22 1017.15 1018.74 1019.31 1019.77 1020.22 1020.35 1020.32 1020.06 1019.52 1018.34
1020.78 1020.88 1020.54 1020.29 1020.82 1020.59 1020.97 1020.60 1020.53 1020.52 1020.67 1020.16 1019.40 1018.91 1019.07 1019.61 1019.59 1018.61 1018.76 1018.75 1019.85 1020.40 1020.33 1019.67 1019.08 1018.42 1018.89 1019.16 1018.87 1018.70 1018.10 1017.85 1017.60 1017.60 1017.82 1017.85 1019.13 1021.48 1021.17 1021.10 1021.27 1021.14 1021.04 1020.28 1019.04
1020.72 1020.76 1020.59 1020.60 1020.79 1020.89 1020.72 1020.69 1020.90 1021.04 1021.19 1020.54 1019.85 1019.96 1020.05 1020.13 1019.89 1019.27 1019.57 1019.54 1020.09 1020.86 1020.56 1020.20 1019.16 1019.10 1019.57 1019.23 1018.93 1019.03 1018.07 1017.74 1018.06 1018.26 1018.85 1019.21 1019.98 1022.39 1023.19 1024.30 1023.73 1023.05 1022.12 1021.16 1019.68
1020.58 1020.63 1020.61 1020.58 1020.88 1020.81 1020.94 1021.22 1021.65 1021.38 1021.70 1021.49 1021.11 1021.41 1021.44 1021.64 1020.87 1020.47 1021.00 1021.35 1022.43 1022.73 1022.39 1021.59 1020.09 1019.73 1019.91 1019.51 1019.34 1019.85 1020.05 1020.39 1020.09 1020.21 1020.39 1019.93 1020.91 1023.55 1024.85 1025.49 1025.57 1024.66 1023.31 1022.03 1020.67
1020.35 1020.45 1020.34 1020.40 1020.72 1020.92 1021.34 1021.63 1022.42 1022.60 1022.33 1022.06 1021.97 1022.48 1022.65 1022.75 1022.20 1021.74 1022.02 1022.77 1023.22 1024.18 1024.55 1023.94 1021.63 1021.03 1021.12 1021.92 1022.69 1022.47 1022.71 1023.31 1022.55 1021.87 1021.26 1020.75 1022.36 1023.88 1025.15 1026.12 1026.19 1025.60 1024.54 1023.21 1021.61
1020.10 1020.32 1020.43 1020.60 1020.69 1021.12 1021.67 1022.11 1022.42 1022.50 1022.45 1022.74 1023.15 1023.84 1023.91 1023.63 1023.51 1022.81 1022.95 1023.37 1023.75 1024.51 1025.22 1025.13 1023.78 1021.98 1021.85 1022.46 1023.22 1023.29 1023.82 1023.83 1024.25 1023.40 1022.69 1022.11 1022.91 1023.93 1024.81 1026.52 1026.47 1025.82 1024.66 1023.32 1021.95
1020.09 1020.45 1020.52 1020.61 1020.73 1021.34 1021.95 1022.78 1022.88 1022.66 1022.66 1023.17 1024.30 1024.82 1025.36 1024.86 1024.32 1023.82 1023.41 1023.22 1023.87 1024.20 1024.94 1025.42 1025.06 1022.90 1022.20 1022.91 1023.40 1024.01 1024.45 1024.32 1024.52 1024.59 1024.33 1023.83 1024.95 1026.56 1026.23 1026.48 1026.73 1026.24 1025.15 1024.32 1023.67
1020.15 1020.61 1020.73 1020.61 1020.88 1021.60 1022.61 1023.00 1022.91 1022.90 1022.84 1023.56 1024.60 1025.15 1025.77 1025.92 1025.35 1024.68 1023.92 1023.20 1023.58 1024.01 1024.37 1025.09 1025.92 1023.96 1023.37 1024.34 1024.90 1024.76 1025.13 1025.27 1025.17 1025.10 1025.71 1026.14 1027.28 1028.04 1028.33 1028.75 1028.63 1027.41 1026.09 1025.70 1024.50
1020.22 1020.98 1020.73 1020.67 1021.63 1022.59 1023.03 1022.84 1022.81 1023.13 1023.17 1023.51 1024.47 1025.29 1026.00 1026.53 1026.16 1025.25 1024.22 1023.24 1023.40 1024.09 1024.51 1024.91 1025.88 1025.99 1024.52 1023.99 1024.55 1024.93 1025.98 1026.60 1026.45 1025.47 1026.60 1026.98 1027.87 1028.28 1028.84 1029.45 1029.05 1028.14 1027.26 1026.58 1025.81
1020.17 1020.55 1020.70 1020.70 1021.78 1022.76 1023.22 1023.15 1022.99 1023.15 1023.24 1023.70 1024.50 1025.33 1026.38 1026.97 1026.86 1025.74 1024.37 1023.48 1023.35 1024.22 1024.67 1024.98 1025.58 1026.43 1025.20 1024.62 1024.73 1025.19 1026.32 1026.95 1026.81 1026.13 1027.37 1027.76 1028.26 1028.38 1028.93 1029.70 1029.51 1029.19 1028.10 1026.90 1026.59
1020.02 1020.78 1021.14 1021.11 1021.47 1021.94 1022.70 1023.08 1023.13 1022.91 1022.93 1023.50 1024.34 1025.39 1026.49 1027.14 1026.99 1026.31 1024.92 1023.67 1023.58 1024.06 1024.55 1024.99 1026.05 1027.14 1028.04 1027.37 1026.95 1026.22 1026.83 1027.73 1027.40 1027.89 1027.70 1028.84 1029.39 1029.51 1029.54 1029.75 1029.75 1029.64 1028.78 1027.07 1027.09
1019.82 1020.68 1021.31 1021.60 1021.47 1021.43 1021.43 1022.09 1022.56 1022.88 1022.94 1023.47 1024.38 1025.05 1026.02 1027.27 1027.27 1026.49 1025.29 1024.10 1023.87 1024.22 1024.76 1025.42 1026.62 1027.41 1027.76 1027.49 1027.41 1027.38 1026.74 1029.10 1029.06 1029.50 1029.19 1028.47 1030.61 1031.27 1030.93 1030.54 1030.67 1030.03 1029.57 1028.60 1027.36
1019.30 1020.44 1021.39 1021.25 1021.09 1021.08 1021.03 1021.48 1021.43 1022.12 1022.50 1023.37 1024.40 1024.49 1025.40 1025.84 1025.38 1025.52 1025.06 1024.75 1024.62 1024.69 1025.28 1025.85 1026.88 1027.70 1028.11 1027.89 1028.03 1028.05 1026.81 1028.37 1030.23 1030.17 1029.78 1029.59 1030.25 1031.14 1031.52 1031.33 1031.02 1030.64 1030.25 1029.14 1028.28
1018.98 1019.83 1020.19 1020.93 1020.81 1020.79 1020.13 1020.22 1020.56 1021.06 1022.09 1022.27 1023.18 1024.36 1025.08 1024.68 1024.48 1024.58 1024.63 1024.84 1025.21 1025.60 1026.01 1026.47 1027.06 1027.94 1028.59 1028.09 1028.04 1028.15 1027.14 1027.87 1030.67 1030.83 1030.70 1030.59 1030.53 1030.77 1031.42 1031.64 1031.75 1031.44 1030.87 1030.52 1029.68
Wind_Speed
12 13 14 15 16 17 17 18 17 16 15 15 15 12 10 11 11 1 7 5 8 15 13 9 7 7 7 2 4 4 2 4 5 3 7 9 8 6 6 2 3 3 2 5 9
12 13 14 16 17 18 18 18 17 17 16 16 12 9 8 9 1 10 6 14 15 15 9 10 9 9 4 3 3 5 5 8 8 1 5 8 7 7 6 7 4 5 6 10 10
12 13 15 16 17 18 19 18 17 17 17 11 9 7 8 6 2 3 10 16 15 11 5 8 6 6 4 3 4 5 5 9 16 6 5 7 9 8 8 2 3 9 9 9 8
13 13 15 16 17 19 19 17 17 17 11 9 7 7 7 2 3 1 8 14 15 10 5 6 5 7 4 5 5 6 6 7 7 7 9 8 8 9 7 10 7 10 7 6 10
12 13 14 16 17 19 19 18 19 11 8 7 7 7 3 5 2 1 9 10 8 5 6 6 8 3 4 8 10 7 6 7 10 9 10 12 9 8 14 12 11 11 11 10 9
13 14 15 16 18 19 19 19 14 8 6 7 6 7 2 4 4 6 8 8 5 4 5 3 4 6 5 5 5 6 8 10 10 14 13 15 17 4 10 9 11 13 15 11 9
13 14 15 17 18 20 18 18 10 7 6 6 7 4 5 4 3 5 6 4 6 3 4 3 2 2 5 6 7 10 13 13 15 9 8 9 5 6 13 6 9 9 7 7 6
13 14 16 17 19 21 16 16 9 7 7 6 6 2 2 2 3 8 6 9 8 3 2 2 2 1 2 5 5 6 2 2 8 12 6 8 8 8 10 6 12 17 14 14 16
12 13 16 17 19 21 16 15 9 7 6 7 4 2 3 0 7 7 5 8 9 3 3 2 2 2 4 3 5 4 7 11 7 11 13 10 14 10 13 10 14 13 15 16 17
11 12 15 18 19 19 18 13 5 6 3 4 3 3 5 6 6 7 11 8 6 3 1 1 0 2 4 5 6 13 15 9 13 10 8 8 10 12 17 15 13 15 17 17 18
10 13 15 17 20 19 11 3 5 4 9 3 1 3 3 8 5 8 7 9 6 6 5 3 6 4 7 6 10 15 13 19 19 14 10 9 9 14 10 16 17 18 19 20 22
10 12 14 16 19 16 5 5 3 2 2 2 1 1 1 2 5 8 6 7 7 6 9 6 2 5 9 10 13 13 19 16 11 18 17 5 10 11 14 16 14 16 18 20 24
9 11 14 16 13 4 5 1 2 2 4 2 1 2 5 2 3 8 7 6 4 6 7 1 3 6 9 14 18 15 9 14 21 18 6 3 4 13 15 15 17 18 19 20 21
8 10 13 20 3 2 3 3 2 1 6 6 2 4 5 3 2 4 4 2 6 5 5 4 6 7 9 10 17 12 8 19 19 7 2 2 3 16 16 15 19 20 21 22 23
5 8 12 8 3 2 3 2 1 2 5 4 3 1 3 4 5 6 5 5 2 6 5 5 6 9 5 10 13 9 20 14 11 2 1 3 5 7 13 18 25 24 23 23 22
4 6 9 3 1 0 2 3 2 8 4 3 3 6 5 5 6 7 5 7 3 5 1 6 6 3 4 14 5 18 7 3 2 3 6 9 4 6 10 14 18 19 21 22 23
3 4 4 1 2 0 2 2 6 7 4 7 3 5 3 6 7 7 5 8 7 8 8 7 5 3 4 9 4 18 8 5 8 7 4 3 9 1 6 9 11 17 19 20 19
2 5 2 1 2 2 2 5 5 4 4 1 4 4 2 6 4 7 5 6 5 2 2 5 11 7 8 5 5 7 5 4 5 1 4 6 3 3 7 7 11 13 14 16 17
3 1 1 2 2 3 4 5 7 6 3 2 4 5 5 4 2 6 4 3 3 2 4 5 8 3 5 3 4 8 6 3 1 3 2 3 1 11 17 13 14 15 18 18 19
1 2 2 2 3 3 5 4 3 1 4 4 4 4 2 5 4 6 5 2 4 4 4 4 5 4 2 7 4 5 3 4 3 5 5 3 2 4 21 22 18 18 17 16 17
3 3 1 3 3 4 3 5 3 1 2 5 4 3 4 3 1 2 4 2 2 4 3 3 4 9 5 3 5 5 4 3 3 3 2 3 4 3 9 11 13 15 16 15 16
3 1 1 2 3 1 3 5 3 3 0 3 3 2 5 2 1 1 2 4 4 3 1 2 4 4 8 6 6 5 4 1 2 3 2 1 2 3 6 8 10 14 16 14 14
3 2 1 2 2 1 3 2 1 4 4 5 4 3 2 4 2 3 2 1 5 3 2 3 1 5 11 4 1 2 4 2 3 3 3 1 3 3 8 9 10 11 12 12 14
3 1 3 3 1 6 5 3 2 1 4 3 3 4 4 2 2 3 3 3 4 2 4 2 1 6 6 10 1 9 5 7 3 3 5 4 5 13 15 13 12 13 13 13 11
1 3 1 2 4 4 4 6 5 4 0 4 1 5 7 3 2 4 4 4 1 5 3 4 1 2 5 7 0 4 6 7 4 2 1 8 3 3 7 11 10 10 9 11 13
6 4 1 0 2 5 5 7 9 4 8 4 4 4 5 6 8 7 4 3 2 4 3 2 1 2 6 3 2 5 10 2 5 2 2 6 2 4 0 6 8 10 9 11 12
1 3 3 2 2 3 5 6 9 9 5 5 7 5 2 8 5 4 2 1 2 3 2 2 2 3 5 2 3 7 7 2 6 3 4 4 5 1 4 4 5 7 8 8 10
Wind_Direction
1 4 3 357 354 351 346 341 344 338 337 330 331 331 331 333 333 62 49 336 328 331 337 327 352 336 322 267 188 40 350 291 269 281 289 345 354 333 340 357 326 307 159 239 292
359 359 358 356 352 347 346 341 343 337 333 328 333 336 334 345 317 67 0 349 339 340 343 342 332 326 322 270 279 139 180 227 210 22 308 320 347 321 10 329 300 318 327 339 339
352 357 351 354 350 345 345 341 342 336 331 335 342 349 340 350 57 70 349 350 346 336 304 299 279 318 299 311 260 230 238 269 285 306 3 317 323 328 350 284 319 311 317 321 324
343 353 349 351 347 344 343 341 340 336 343 351 355 352 347 282 78 240 344 357 338 321 290 298 348 336 300 304 337 319 290 300 306 337 343 324 311 312 282 272 282 285 281 297 310
341 348 349 348 344 342 343 341 340 341 359 0 348 358 356 56 52 276 8 340 323 344 325 356 328 293 315 325 326 291 301 314 317 315 300 301 292 269 288 287 283 286 287 285 285
339 342 347 346 341 342 343 341 347 350 1 353 346 343 42 74 275 21 348 333 308 326 309 327 267 306 280 269 268 294 316 304 299 291 281 271 270 255 265 258 268 266 263 256 247
338 340 343 341 339 340 340 340 342 335 340 341 342 322 60 172 53 5 1 312 309 284 270 267 313 59 347 311 275 290 292 291 281 278 255 266 274 245 269 304 287 292 272 283 265
335 338 339 339 338 338 337 340 330 320 318 313 324 360 135 199 45 7 303 315 325 202 202 258 26 338 204 260 299 273 274 325 308 314 314 334 282 286 295 314 25 24 20 22 9
329 334 337 339 336 333 331 327 305 300 299 298 345 196 20 35 1 317 0 314 303 248 232 235 67 204 327 313 312 335 306 300 300 334 325 319 306 301 300 8 30 12 9 5 356
328 333 338 340 336 330 326 313 274 326 255 271 269 14 24 324 307 319 324 327 248 259 319 61 132 35 3 25 307 297 301 289 295 315 343 334 347 31 25 29 24 13 3 356 349
329 333 338 341 337 329 338 10 21 12 38 78 270 81 342 320 307 338 321 333 358 61 19 294 58 2 308 289 275 293 311 311 304 311 358 341 315 352 47 28 20 13 1 349 343
329 332 338 338 335 328 4 59 106 220 85 348 292 248 144 25 294 317 7 41 7 10 358 14 43 351 347 337 319 319 312 308 301 331 313 175 12 60 42 38 21 13 2 350 339
329 333 336 334 327 5 82 34 311 352 114 12 19 1 298 17 284 315 28 354 14 4 1 286 306 350 342 327 328 335 316 326 309 319 317 160 118 28 11 30 7 11 2 352 342
327 333 340 335 12 315 52 334 308 345 83 307 29 354 335 206 276 306 359 117 7 332 346 274 322 332 330 333 343 321 340 309 307 335 321 101 159 31 351 349 6 5 357 348 342
325 337 343 348 278 38 316 340 313 53 49 304 346 277 313 73 285 325 36 32 64 296 70 280 307 315 349 339 334 261 317 302 299 256 265 77 75 348 358 355 354 354 351 344 340
328 340 355 44 323 350 324 356 42 43 282 340 35 5 10 353 325 314 49 25 49 319 238 260 280 10 330 313 287 330 320 115 195 85 38 2 94 8 7 345 339 342 343 342 342
318 328 327 315 273 268 48 49 32 103 320 305 356 359 8 315 329 9 17 30 41 6 9 331 295 351 349 333 310 359 22 4 11 18 16 45 57 197 346 4 342 333 335 337 343
298 311 262 131 124 103 72 51 74 232 225 274 42 333 44 350 326 335 18 14 37 34 333 24 340 23 331 121 248 320 100 119 172 165 272 26 6 191 75 22 343 339 336 338 345
319 350 130 184 147 89 78 51 199 197 171 75 35 65 319 316 53 18 18 13 51 74 119 22 285 330 64 85 59 316 34 226 132 282 295 153 113 142 3 353 348 347 348 348 354
66 344 170 173 109 82 75 207 163 110 127 76 143 147 227 288 37 32 340 61 5 43 158 255 306 277 23 40 8 91 292 23 23 11 333 305 63 292 337 344 343 344 343 342 350
77 23 121 113 87 52 165 204 170 120 111 111 192 143 218 264 268 317 276 84 58 327 324 149 116 293 28 18 220 12 2 330 279 140 171 314 302 254 309 327 333 323 332 347 352
121 21 150 105 46 52 145 176 187 161 95 106 154 126 165 196 259 278 283 219 80 89 354 194 175 279 255 244 193 140 199 145 79 303 63 228 285 272 327 338 335 330 340 352 2
142 202 84 105 173 245 293 9 122 151 170 153 183 144 110 195 38 233 288 176 92 103 166 266 356 344 334 323 18 27 34 312 232 272 101 277 325 326 357 346 344 339 345 344 12
103 67 332 58 208 150 154 200 165 337 139 156 131 116 83 12 302 280 277 283 133 156 182 136 117 148 178 235 204 314 356 12 21 46 301 157 283 342 339 340 344 348 348 342 12
100 226 186 199 266 200 131 143 143 184 208 157 236 190 168 148 1 249 257 296 216 1 140 105 257 129 250 248 307 254 295 73 55 243 86 309 97 310 317 326 331 331 355 9 13
138 140 13 133 264 142 171 213 168 167 149 224 177 213 177 172 188 204 175 228 279 356 20 351 239 75 306 342 74 312 299 70 100 308 308 331 333 132 8 308 342 359 5 11 13
111 51 92 220 210 128 218 183 197 144 213 168 169 120 183 236 197 200 206 147 176 137 332 45 99 75 280 30 31 341 273 314 119 270 203 41 252 88 21 343 349 351 12 15 12